Theta_e
338 344 348 349 348 346 345 344 343 342 341 340 339 338 338 340 339 342 341 340 340 337 337 337 336 335 334 335 336 335 333 334 335 336 337 337 337 337 338 338 340 337 340
341 344 347 348 348 346 344 342 341 341 340 339 338 338 338 338 338 341 340 339 340 337 336 335 334 335 334 336 334 333 332 332 333 334 336 338 337 338 340 339 339 336 337
340 344 345 347 347 345 343 342 343 340 338 338 338 338 338 339 337 340 339 340 340 338 336 334 334 334 334 333 333 333 333 333 333 334 334 336 337 339 339 337 335 334 334
340 342 344 345 347 345 343 343 342 340 338 338 338 339 338 338 337 339 339 339 338 337 334 334 335 334 333 332 333 332 334 333 333 337 336 336 335 338 336 334 332 331 329
340 342 344 345 346 344 343 343 342 340 337 336 337 339 338 338 336 338 339 339 337 334 334 335 335 333 332 334 334 333 333 332 333 335 334 335 335 335 333 331 329 327 327
339 342 343 345 345 344 344 342 341 339 337 338 338 337 338 336 336 337 337 337 337 336 335 334 332 333 332 331 331 330 330 332 334 334 333 333 333 334 331 329 327 326 325
339 342 344 344 345 345 344 342 342 340 339 337 337 336 336 333 332 336 337 336 335 336 334 333 333 331 331 331 330 329 329 330 330 331 330 329 330 331 329 328 326 325 324
339 340 342 339 342 343 343 343 342 341 340 338 337 335 334 333 332 333 335 333 333 335 335 333 331 331 330 330 329 329 329 330 330 330 328 327 331 330 328 326 325 324 323
338 338 340 342 340 338 339 340 340 340 339 339 338 335 335 335 333 333 334 332 334 333 332 332 331 331 330 329 328 328 328 328 328 329 327 325 331 329 326 325 324 323 322
336 335 336 338 340 340 341 333 335 336 336 336 335 332 330 331 331 330 331 334 333 333 332 332 331 330 329 328 326 325 326 327 327 327 327 325 329 326 324 324 323 322 321
333 333 334 335 336 337 338 335 331 332 332 331 329 327 325 329 329 328 329 332 333 332 330 329 329 329 329 327 324 325 325 324 325 325 325 327 327 325 323 322 321 320 319
332 332 333 334 335 337 335 337 337 335 333 331 330 329 330 330 330 329 326 328 331 330 330 329 328 327 325 327 325 323 325 324 323 324 321 326 324 324 321 320 320 319 318
333 332 332 333 335 335 334 335 335 334 334 331 331 330 331 330 330 329 329 327 328 324 328 328 326 327 328 328 327 327 325 324 323 323 321 323 323 322 321 318 318 317 316
332 332 332 333 333 335 336 335 334 333 333 332 330 331 330 329 329 327 327 326 329 327 328 328 328 328 328 327 327 326 325 324 323 322 319 320 322 322 320 318 317 316 315
332 333 333 334 333 334 334 335 334 333 333 332 330 330 329 328 328 327 327 326 326 327 327 327 327 327 327 327 327 327 325 325 322 320 321 317 323 322 320 318 317 316 315
332 333 334 333 334 334 334 334 334 334 333 333 331 329 328 327 327 326 326 325 325 326 327 327 327 326 326 326 325 326 326 325 322 320 319 319 320 322 320 319 318 317 317
332 334 334 333 334 333 333 334 334 334 333 333 331 329 328 328 327 325 325 325 325 326 327 328 328 327 326 325 325 324 326 325 321 319 318 319 319 318 321 320 319 317 316
332 332 334 334 333 334 333 334 334 334 333 332 331 330 328 328 328 326 325 324 325 326 327 327 327 325 324 324 322 322 324 322 320 319 318 317 318 318 317 318 317 316 315
332 332 333 334 332 333 335 334 334 333 333 333 332 330 329 329 328 327 325 325 326 327 327 327 326 326 323 323 322 323 323 322 320 319 317 317 318 317 318 318 315 314 314
331 332 332 334 334 334 334 335 335 333 333 333 332 331 329 329 329 329 328 328 327 327 326 327 326 326 324 323 319 319 321 321 321 320 318 318 318 317 316 316 312 310 311
330 331 331 332 334 334 333 332 331 330 331 332 333 332 329 329 329 329 329 328 328 326 326 326 326 324 322 324 320 318 318 318 317 320 320 319 318 316 314 313 313 312 308
327 329 331 332 333 334 334 334 333 331 332 332 333 333 332 330 329 328 328 328 327 326 326 326 326 323 321 323 318 317 312 316 315 317 319 317 317 317 314 311 311 310 308
325 328 330 331 333 334 334 334 332 332 331 330 330 330 331 331 330 329 329 328 328 328 326 326 326 324 319 322 321 317 311 308 315 317 315 315 315 314 314 312 309 308 306
324 328 329 330 332 333 335 332 331 328 327 329 331 332 332 332 331 330 329 329 329 329 327 326 326 325 324 318 320 319 321 319 312 310 316 314 314 312 313 312 307 306 304
324 325 328 329 331 332 333 333 331 330 330 331 330 331 331 332 331 330 329 329 328 328 328 327 326 325 324 323 321 318 316 316 317 311 308 313 316 313 311 311 309 305 301
320 324 328 328 329 331 332 333 332 330 330 329 329 330 331 331 331 330 329 329 328 328 327 327 326 326 324 324 323 322 319 315 313 313 310 311 311 316 312 308 306 303 301
Wind_Speed
8 13 8 11 12 13 12 12 12 12 12 12 11 12 12 13 14 14 15 14 12 17 16 16 16 17 17 17 17 17 16 16 14 13 14 14 14 13 14 13 13 15 20
11 13 8 9 12 13 11 11 12 11 12 12 12 12 12 13 12 13 16 13 12 17 16 15 16 16 17 16 15 14 14 13 9 8 7 11 11 12 17 18 18 15 18
10 14 11 9 12 13 12 10 11 10 12 12 12 12 12 12 11 12 14 11 13 16 15 14 15 15 15 14 13 12 11 8 7 6 3 6 12 17 17 17 16 16 17
10 12 12 10 12 13 12 10 9 10 9 11 11 12 12 12 11 12 13 11 15 16 14 14 15 14 13 12 11 10 10 8 5 5 1 9 11 16 15 15 16 17 16
9 11 14 11 12 13 11 11 10 9 10 10 11 12 12 12 11 11 12 13 13 13 14 14 13 13 12 11 10 9 7 5 8 4 9 9 8 12 14 16 16 16 16
9 10 12 12 12 12 11 11 11 11 12 10 12 11 12 11 10 9 11 13 12 14 13 12 12 12 11 9 8 7 7 10 13 10 9 10 10 13 14 16 16 15 15
9 10 12 10 10 11 12 12 11 11 11 12 12 10 11 11 9 8 12 11 10 12 12 12 11 10 9 9 8 8 6 10 6 11 7 9 10 13 14 15 15 14 13
11 11 12 10 9 9 11 12 12 10 10 10 11 12 10 11 8 6 9 11 9 10 11 11 9 8 8 8 8 8 6 8 7 7 7 9 10 13 13 14 13 13 13
10 9 11 11 10 7 9 10 10 10 10 9 9 10 10 9 9 7 6 8 10 10 9 8 7 7 7 8 7 7 7 10 9 6 6 5 10 12 11 11 12 12 12
9 9 9 10 11 11 11 8 9 10 9 9 9 11 9 8 7 5 6 8 9 8 7 6 5 5 7 6 5 2 5 9 7 6 7 6 9 11 10 10 10 11 10
9 9 9 10 11 10 9 10 7 7 7 7 8 9 9 8 9 9 4 8 8 7 5 4 4 5 7 5 2 3 8 4 4 3 5 8 9 9 8 8 8 9 8
12 11 10 10 11 12 6 10 9 9 8 8 9 10 9 8 8 6 7 6 5 4 3 3 4 4 8 6 5 7 1 3 3 5 4 7 4 6 7 6 6 7 7
13 11 11 11 10 11 6 6 3 4 5 6 9 9 6 6 4 5 5 5 6 6 6 6 5 6 1 2 1 0 2 3 3 4 7 4 4 3 6 4 4 4 4
14 13 12 12 12 11 8 6 5 4 5 5 7 9 6 5 7 6 5 7 5 5 5 4 4 2 3 3 2 1 1 2 1 3 4 3 3 1 5 3 2 2 2
15 14 14 13 12 11 11 8 6 6 7 7 7 9 7 7 6 6 6 6 6 6 5 5 4 5 5 4 3 3 3 1 1 1 0 1 3 5 5 4 4 4 4
15 15 14 14 12 12 11 11 9 9 9 8 8 8 10 7 6 7 6 6 6 6 6 5 5 5 4 3 4 4 3 2 3 3 3 3 7 10 10 8 7 7 7
16 15 16 16 15 14 14 11 9 8 9 8 8 10 11 10 8 8 7 6 6 6 6 5 5 5 5 4 5 5 3 4 5 5 5 5 5 8 8 10 10 9 9
17 17 16 13 16 16 14 11 9 9 9 9 9 9 11 11 10 9 7 7 7 6 7 7 7 5 4 4 5 3 4 3 6 6 5 5 5 5 7 9 9 10 10
17 17 18 18 18 18 15 11 11 11 9 9 9 8 12 12 12 9 7 7 8 6 6 6 6 6 4 4 4 3 4 5 7 6 8 7 8 6 5 10 9 8 10
16 17 18 16 18 16 12 10 8 8 9 9 9 9 13 11 13 11 8 8 8 7 6 6 7 6 6 3 2 5 5 6 6 6 8 8 8 7 6 7 6 6 12
16 18 18 18 18 13 11 11 10 10 9 9 9 12 13 12 13 12 8 9 8 8 8 8 7 8 4 4 3 6 7 8 9 8 6 7 8 8 8 6 5 4 5
19 18 18 18 17 15 12 11 10 9 9 10 9 11 13 13 13 12 11 10 10 8 10 9 9 7 7 6 5 4 4 5 8 9 7 8 9 6 6 8 7 7 5
18 18 19 19 19 18 18 11 9 9 10 10 10 10 12 14 14 14 14 11 10 9 8 10 10 11 8 6 8 5 3 5 2 6 9 8 8 6 7 7 9 9 8
17 16 17 18 19 17 18 15 17 13 12 12 11 10 11 15 15 15 14 13 12 9 11 9 9 10 10 9 5 9 10 6 4 4 5 6 7 8 9 7 7 8 9
12 15 14 16 17 18 18 18 14 16 12 10 10 14 14 12 15 15 15 14 13 10 12 12 11 12 9 9 9 5 8 9 9 7 6 6 5 6 7 7 7 7 7
9 8 12 15 17 17 18 19 20 18 16 12 13 12 11 11 11 16 16 14 14 13 13 12 13 13 12 11 9 9 9 5 5 6 8 8 10 9 4 5 7 5 6
Wind_Direction
136 118 133 131 121 112 108 106 101 101 102 104 101 98 95 86 83 80 85 81 89 87 80 81 80 80 81 80 75 72 73 62 66 74 74 70 68 68 52 35 51 63 64
135 129 137 137 127 117 112 107 105 100 104 102 101 99 95 94 88 90 90 81 88 93 86 83 86 89 86 80 83 82 78 72 55 38 44 89 70 64 69 67 58 57 55
136 122 143 142 128 122 115 110 107 106 106 102 105 103 99 101 96 94 91 86 105 95 90 92 93 90 88 83 79 79 74 57 17 350 321 69 77 82 70 61 56 54 48
142 143 135 136 128 128 124 120 114 110 100 103 104 102 97 100 100 95 98 91 96 93 93 99 93 89 88 84 76 72 56 44 343 348 292 88 78 72 68 65 58 51 51
146 126 118 131 134 135 135 131 124 118 101 98 96 97 100 104 105 99 103 98 102 101 105 102 100 96 88 79 71 55 28 350 308 41 69 76 72 66 58 53 56 57 58
134 123 129 134 140 142 143 136 132 120 117 110 106 102 104 100 102 101 102 95 100 105 109 108 101 89 87 83 73 55 21 335 312 72 56 70 63 59 60 60 59 62 58
150 133 149 141 152 151 154 145 137 132 131 122 117 106 105 108 123 108 108 106 111 115 112 106 106 105 95 83 67 49 16 334 32 78 61 62 61 59 63 61 63 61 60
163 151 141 147 153 157 162 151 147 143 129 127 131 127 123 126 130 123 116 123 119 102 107 121 122 114 103 83 64 44 4 328 75 82 78 61 60 60 63 60 61 59 59
149 170 157 168 163 155 161 152 143 141 142 133 130 128 126 122 128 130 123 135 128 128 132 133 136 129 108 89 73 44 0 337 77 65 75 72 61 61 56 58 60 61 59
160 177 176 175 172 169 159 150 146 144 143 143 143 126 120 115 108 128 144 147 139 137 135 130 116 128 117 97 79 27 315 304 74 63 57 55 72 59 50 67 64 61 62
173 185 183 179 184 165 167 153 141 140 144 132 134 139 149 156 176 168 103 128 139 142 144 136 128 122 129 119 104 295 290 34 67 61 56 24 69 73 68 63 65 65 64
186 188 186 182 184 161 163 155 181 162 177 185 181 172 197 168 163 183 127 122 123 133 145 155 155 177 203 172 163 234 15 29 47 124 81 27 63 91 74 66 69 68 64
195 187 196 189 187 175 168 172 169 171 191 194 194 192 197 184 160 174 159 174 177 192 192 190 185 222 222 269 137 322 98 22 9 41 83 57 29 97 105 86 79 80 82
200 197 197 194 192 193 156 185 177 189 194 193 200 198 196 195 185 200 181 186 193 180 214 218 210 220 223 243 256 313 60 354 309 57 86 49 355 168 139 139 138 138 121
207 201 197 199 200 196 185 185 189 204 199 198 195 199 203 202 195 201 200 195 196 199 202 206 221 209 222 234 228 234 221 186 283 96 36 168 173 177 175 188 209 208 203
220 206 203 205 209 204 203 198 195 200 195 203 198 198 209 213 203 204 201 207 208 208 212 218 208 220 227 231 236 243 256 156 212 191 212 199 200 177 190 205 223 228 223
215 213 203 201 205 211 209 209 209 206 205 200 200 201 201 211 209 208 208 208 210 208 227 224 223 235 241 231 252 254 229 213 222 209 216 227 212 227 225 217 224 237 236
212 208 209 204 206 207 208 208 207 210 208 208 207 202 201 207 214 206 212 212 213 211 210 218 218 224 228 230 244 207 212 193 244 232 232 240 240 242 206 245 240 241 240
213 208 209 205 208 213 209 210 205 210 207 212 209 207 201 207 210 214 217 218 210 213 219 226 224 223 220 223 230 222 215 213 235 234 241 238 243 243 262 188 215 250 248
216 214 211 208 209 208 212 212 209 207 209 212 211 208 207 204 207 208 215 216 217 215 220 218 228 225 235 221 161 236 233 232 243 233 238 236 237 236 235 251 181 227 234
218 217 218 211 208 204 203 208 209 209 209 214 213 209 208 207 204 209 215 214 212 219 220 221 220 231 215 230 231 237 245 243 244 244 234 240 242 224 229 234 236 228 207
219 219 220 220 211 207 202 206 207 210 214 215 211 216 213 210 208 205 212 215 212 213 220 223 222 224 233 180 215 260 275 216 229 231 230 238 241 240 219 228 237 236 238
218 215 216 216 215 210 210 204 203 207 214 217 212 209 214 215 208 209 211 213 214 215 219 219 220 216 225 205 208 234 222 233 15 184 216 227 228 224 229 217 217 226 229
222 219 219 216 212 215 207 210 204 204 206 212 208 209 210 213 216 207 212 214 214 212 218 221 217 219 216 228 191 220 250 287 268 277 204 220 230 228 223 217 210 212 215
233 214 222 224 217 213 211 208 215 214 218 212 214 216 212 211 212 213 208 212 213 215 218 218 216 218 220 220 216 183 222 239 242 242 265 259 233 201 226 221 208 206 203
259 229 216 221 222 216 210 212 216 218 214 213 216 215 216 208 206 211 210 209 212 214 215 216 221 217 219 226 226 228 217 203 201 219 240 249 250 260 214 208 207 205 207